Torna al catalogo

SL-12 R/B(2)

AttivoGEO
NORAD 15581·ROCKET BODY·🇷🇺 Russia

Lanciato Feb 21, 1985 da Baikonur Cosmodrome

Loading…

TLE

AggiornatoSource: Space-Track

Epoca: Sep 14, 2026, 18:13 UTC

1 15581U 85016F   26257.75958753  .00000058  00000-0  00000-0 0  9994
2 15581   9.4902 315.7624 0026141 259.4490 264.0660  0.99405761122821

Traccia SL-12 R/B(2) in tempo reale con AllMySat

Download on the App Store